sat.trackr.live / text

‹ back to catalog

ONEWEB-0504

NORAD 54122 · 2022-138K

PAYLOAD ACTIVE UNKNOWN

§ Identity

Operator
Country
UK
Launch date
2022-10-22
Launch site
SRILR
Launch vehicle
Mass (kg)
RCS (m²)

Purposes: comms

External: N2YO · Heavens-Above · Gunter

§ Orbital elements

Epoch: 2026-09-20T01:13:17.911200Z

Period
109.11 min
Inclination
87.9112°
Eccentricity
0.0002050
Mean motion
13.19725480 rev/d
Perigee alt
1,184.2 km
Apogee alt
1,187.3 km
Semi-major
7,563.9 km
B*
2.6860e-5
RAAN
286.0692°
Arg perigee
86.2140°
Mean anomaly
273.9227°
Rev number
18,934

§ Raw data

ONEWEB-05041 54122U 22138K   26263.05090175  .00000024  00000+0  26860-4 0  99972 54122  87.9112 286.0692 0002050  86.2140 273.9227 13.19725480189342

JSON: /api/v1/satellites/54122 · /tle

For live sub-satellite position, see the globe view (requires WebGL).

§ Visibility from observer

Set your observer location to see the next 7 days of passes ≥ 10°. The values pass through the URL so the page stays shareable.

No JS? Fill the form by hand. The geolocation button needs JavaScript.